1529006400.83,43006,17.44,73654.5,2.33,1.83,1.83,0,*7E
1529006402.09,43007,17.44,73654.0,2.33,1.71,1.63,0,*7C
1529006403.33,43008,17.44,73656.8,2.33,1.59,1.63,0,*79
1529006404.56,43009,17.44,73654.8,2.33,1.75,1.71,0,*75
1529006405.81,43010,17.44,73666.3,2.33,1.63,1.63,0,*79
1529006407.06,43011,17.5,73664.8,2.33,1.63,1.63,0,*78
1529006408.31,43012,17.5,73664.8,2.33,1.71,1.63,0,*78
1529006409.55,43013,17.44,73656.0,2.33,1.71,1.75,0,*7E
1529006410.77,43014,17.44,73652.5,2.33,1.75,1.71,0,*79
1529006412.02,43015,17.44,73654.8,2.33,1.71,1.71,0,*7C
1529006413.23,43016,17.44,73654.5,2.33,1.75,1.75,0,*7F
1529006414.43,43017,17.5,73662.5,2.29,1.75,1.75,0,*75
1529006415.68,43018,17.5,73660.5,2.29,1.71,1.71,0,*7A
1529006416.92,43019,17.44,73654.8,2.29,1.63,1.71,0,*78
1529006418.17,43020,17.44,73656.0,2.33,1.59,1.59,0,*7A
1529006419.41,43021,17.44,73660.8,2.29,1.59,1.63,0,*79
1529006420.66,43022,17.5,73662.8,2.29,1.63,1.63,0,*73
1529006421.91,43023,17.44,73660.0,2.29,1.63,1.63,0,*72
1529006423.12,43024,17.44,73660.5,2.33,1.75,1.75,0,*7E
1529006424.34,43025,17.44,73664.3,2.29,1.71,1.75,0,*70
1529006425.57,43026,17.5,73666.3,2.33,1.71,1.75,0,*78
1529006426.82,43027,17.5,73664.5,2.33,1.71,1.71,0,*7D
1529006428.07,43028,17.44,73660.3,2.33,1.71,1.71,0,*72
1529006429.28,43029,17.44,73666.0,2.29,1.75,1.75,0,*78
1529006430.52,43030,17.44,73664.8,2.29,1.71,1.71,0,*70
1529006431.77,43031,17.44,73664.0,2.29,1.63,1.59,0,*78
1529006433.01,43032,17.5,73656.5,2.29,1.59,1.55,0,*7E
1529006434.26,43033,17.5,73660.3,2.29,1.63,1.63,0,*73
1529006435.51,43034,17.44,73656.5,2.29,1.63,1.63,0,*74
1529006436.71,43035,17.44,73660.3,2.29,1.75,1.75,0,*75
1529006437.92,43036,17.5,73660.8,2.33,1.75,1.75,0,*7D
1529006439.17,43037,17.44,73658.5,2.29,1.63,1.63,0,*77
1529006440.41,43038,17.5,73664.5,2.29,1.63,1.71,0,*7B
1529006441.66,43039,17.44,73660.0,2.29,1.63,1.63,0,*79
1529006442.9,43040,17.44,73658.3,2.29,1.59,1.59,0,*77
1529006444.15,43041,17.44,73658.5,2.29,1.63,1.59,0,*7F
1529006445.35,43042,17.44,73658.8,2.29,1.75,1.75,0,*75
1529006446.58,43043,17.44,73658.3,2.29,1.71,1.75,0,*70
1529006447.82,43044,17.44,73656.0,2.29,1.59,1.63,0,*7A
1529006449.07,43045,17.44,73658.5,2.33,1.63,1.63,0,*79
1529006450.33,43046,17.44,73660.3,2.33,1.63,1.63,0,*7A
1529006451.58,43047,17.5,73658.5,2.29,1.63,1.63,0,*70
1529006452.82,43048,17.44,73656.0,2.29,1.63,1.63,0,*7F
1529006454.07,43049,17.44,73658.3,2.29,1.63,1.63,0,*7E
1529006455.31,43050,17.44,73656.8,2.29,1.59,1.59,0,*76
1529006456.56,43051,17.44,73644.3,2.29,1.59,1.59,0,*77
1529006457.8,43052,17.44,73644.3,2.29,1.59,1.63,0,*7D
1529006459.04,43053,17.44,73646.8,2.29,1.59,1.63,0,*7C
1529006460.29,43054,17.5,73650.5,2.29,1.59,1.63,0,*7B
1529006461.53,43055,17.44,73646.0,2.29,1.59,1.59,0,*73
1529006462.77,43056,17.44,73652.5,2.29,1.59,1.59,0,*70
1529006464.02,43057,17.44,73648.0,2.29,1.59,1.59,0,*71
1529006465.27,43058,17.44,73648.5,2.29,1.55,1.47,0,*7D
1529006466.49,43059,17.44,73650.5,2.27,1.51,1.55,0,*75
1529006467.72,43060,17.5,73652.0,2.27,1.51,1.55,0,*7F
1529006468.97,43061,17.44,73652.8,2.29,1.63,1.63,0,*74
1529006470.19,43062,17.44,73652.0,2.27,1.59,1.59,0,*79
1529006471.41,43063,17.44,73654.0,2.27,1.59,1.67,0,*75
1529006472.62,43064,17.5,73656.8,2.29,1.75,1.75,0,*71
1529006473.87,43065,17.44,73650.5,2.33,1.71,1.71,0,*7B
1529006475.11,43066,17.44,73650.5,2.29,1.59,1.63,0,*7A
1529006476.36,43067,17.5,73658.8,2.29,1.63,1.63,0,*72
1529006477.58,43068,17.5,73656.3,2.27,1.67,1.71,0,*74
1529006478.78,43069,17.5,73654.8,2.29,1.75,1.75,0,*7C
1529006480.01,43070,17.5,73654.3,2.29,1.71,1.75,0,*70
1529006481.24,43071,17.44,73650.8,2.29,1.71,1.75,0,*71
1529006482.47,43072,17.44,73652.3,2.29,1.71,1.75,0,*72
1529006483.69,43073,17.44,73652.8,2.27,1.71,1.71,0,*79
1529006484.9,43074,17.44,73654.5,2.29,1.75,1.75,0,*70
1529006486.12,43075,17.44,73654.3,2.27,1.71,1.71,0,*7F
1529006487.37,43076,17.44,73654.5,2.29,1.71,1.71,0,*72
1529006488.61,43077,17.44,73652.5,2.29,1.63,1.71,0,*70
1529006489.84,43078,17.5,73652.8,2.27,1.59,1.67,0,*7F
1529006491.06,43079,17.44,73650.8,2.29,1.75,1.71,0,*79
1529006492.29,43080,17.44,73648.3,2.27,1.71,1.71,0,*75
1529006493.51,43081,17.44,73650.0,2.29,1.75,1.71,0,*7E
1529006494.75,43082,17.5,73654.3,2.29,1.71,1.71,0,*79
1529006495.98,43083,17.44,73644.8,2.29,1.75,1.71,0,*7C
1529006497.22,43084,17.44,73646.5,2.29,1.63,1.71,0,*7C
1529006498.47,43085,17.44,73650.3,2.29,1.71,1.71,0,*7E
1529006499.69,43086,17.44,73650.5,2.29,1.75,1.71,0,*79
1529006500.94,43087,17.44,73650.8,2.29,1.63,1.71,0,*7F
1529006502.16,43088,17.44,73652.0,2.29,1.75,1.71,0,*77
1529006503.39,43089,17.44,73654.5,2.29,1.71,1.75,0,*76
1529006504.61,43090,17.44,73658.0,2.29,1.71,1.75,0,*7E
1529006505.81,43091,17.44,73658.0,2.27,1.75,1.71,0,*71
1529006507.06,43092,17.44,73656.8,2.29,1.71,1.71,0,*78
1529006508.31,43093,17.44,73654.8,2.29,1.71,1.71,0,*79
1529006509.53,43094,17.44,73656.8,2.29,1.75,1.71,0,*7A
1529006510.75,43095,17.5,73658.5,2.29,1.75,1.71,0,*7B
1529006512.0,43096,17.5,73650.8,2.29,1.63,1.63,0,*7C
1529006513.25,43097,17.5,73650.5,2.29,1.63,1.63,0,*7D
1529006514.49,43098,17.44,73646.8,2.29,1.71,1.71,0,*72
1529006515.72,43099,17.5,73644.0,2.27,1.71,1.71,0,*7D
1529006516.95,43100,17.5,73616.5,2.29,1.71,1.75,0,*76
1529006518.17,43101,17.5,73610.8,2.29,1.71,1.75,0,*77
1529006519.42,43102,17.44,73630.0,2.29,1.59,1.59,0,*70
1529006520.66,43103,17.44,73658.0,2.29,1.59,1.59,0,*71
1529006521.88,43104,17.44,73646.3,2.27,1.63,1.59,0,*71
1529006523.13,43105,17.44,73630.8,2.29,1.63,1.63,0,*77
1529006524.37,43106,17.44,73632.0,2.29,1.63,1.59,0,*7D
1529006525.62,43107,17.5,73650.8,2.29,1.59,1.59,0,*75
1529006526.84,43108,17.44,73650.3,2.27,1.51,1.55,0,*70
1529006528.09,43109,17.44,73648.5,2.29,1.55,1.59,0,*77
1529006529.33,43110,17.5,73656.3,2.29,1.59,1.59,0,*73
1529006530.58,43111,17.44,73654.0,2.29,1.59,1.59,0,*72
1529006531.82,43112,17.44,73654.3,2.29,1.63,1.59,0,*78
1529006533.05,43113,17.5,73654.3,2.27,1.55,1.59,0,*72
1529006534.27,43114,17.5,73648.3,2.27,1.59,1.59,0,*79
1529006535.49,43115,17.5,73646.0,2.29,1.75,1.71,0,*72
1529006536.71,43116,17.5,73640.5,2.27,1.67,1.59,0,*76
1529006537.94,43117,17.44,73644.8,2.27,1.63,1.59,0,*73
1529006539.17,43118,17.44,73646.5,2.27,1.55,1.55,0,*75
1529006540.4,43119,17.5,73642.3,2.27,1.55,1.59,0,*78
1529006541.64,43120,17.44,73644.5,2.29,1.59,1.59,0,*70
1529006542.87,43121,17.5,73654.8,2.27,1.55,1.55,0,*7F
1529006544.12,43122,17.44,73644.5,2.29,1.59,1.59,0,*72
1529006545.35,43123,17.44,73646.3,2.27,1.55,1.51,0,*79
1529006546.6,43124,17.44,73650.3,2.29,1.63,1.63,0,*74
1529006547.82,43125,17.44,73648.8,2.27,1.67,1.59,0,*76
1529006549.04,43126,17.44,73642.8,2.27,1.59,1.67,0,*75
1529006550.27,43127,17.44,73650.8,2.27,1.59,1.67,0,*74
1529006551.52,43128,17.44,73654.3,2.29,1.71,1.71,0,*78
1529006552.74,43129,17.44,73658.8,2.27,1.67,1.59,0,*7A
1529006553.98,43130,17.44,73660.8,2.29,1.71,1.71,0,*71
1529006555.21,43131,17.44,73658.5,2.27,1.67,1.71,0,*79
1529006556.43,43132,17.44,73662.0,2.27,1.67,1.67,0,*7D
1529006557.68,43133,17.44,73662.8,2.29,1.71,1.67,0,*75
1529006558.9,43134,17.44,73658.5,2.27,1.59,1.59,0,*7B
1529006560.15,43135,17.5,73654.8,2.29,1.63,1.59,0,*7D
1529006561.38,43136,17.5,73652.3,2.27,1.55,1.51,0,*7D
1529006562.62,43137,17.44,73640.0,2.27,1.33,1.33,0,*78
1529006563.82,43138,17.44,73640.5,2.27,1.29,1.41,0,*79
1529006565.07,43139,17.44,73630.8,2.27,1.29,1.21,0,*7E
1529006566.31,43140,17.44,73634.0,2.27,1.21,1.21,0,*78
1529006567.57,43141,17.44,73630.3,2.25,1.29,1.21,0,*73
1529006568.84,43142,17.5,73624.0,2.25,1.21,1.21,0,*78
1529006570.1,43143,17.44,73622.8,2.25,1.33,1.29,0,*72
1529006571.33,43144,17.44,73628.5,2.23,1.25,1.17,0,*79
1529006572.57,43145,17.44,73636.3,2.25,1.43,1.43,0,*7F
1529006573.79,43146,17.44,73634.3,2.23,1.47,1.47,0,*7A
1529006574.99,43147,17.44,73636.0,2.23,1.47,1.41,0,*7D
1529006576.24,43148,17.44,73636.5,2.25,1.51,1.51,0,*72
1529006577.46,43149,17.44,73644.0,2.23,1.51,1.51,0,*75
1529006578.68,43150,17.5,73642.5,2.23,1.51,1.51,0,*7D
1529006579.9,43151,17.44,73644.0,2.23,1.59,1.59,0,*7C
1529006581.15,43152,17.44,73642.8,2.25,1.67,1.59,0,*74
1529006582.37,43153,17.44,73646.8,2.23,1.63,1.63,0,*7E
1529006583.62,43154,17.5,73652.0,2.25,1.67,1.67,0,*7F
1529006584.87,43155,17.44,73656.8,2.25,1.67,1.71,0,*79
1529006586.09,43156,17.44,73648.3,2.23,1.67,1.71,0,*7C
1529006587.32,43157,17.44,73644.3,2.23,1.63,1.67,0,*7E
1529006588.56,43158,17.5,73656.5,2.25,1.67,1.71,0,*74
1529006589.81,43159,17.5,73658.8,2.25,1.71,1.71,0,*72
1529006591.06,43160,17.44,73650.8,2.25,1.67,1.67,0,*78
1529006592.31,43161,17.44,73654.3,2.25,1.67,1.67,0,*79
1529006593.56,43162,17.44,73652.3,2.25,1.71,1.71,0,*7A
1529006594.81,43163,17.5,73654.5,2.25,1.71,1.71,0,*7B
1529006596.06,43164,17.5,73654.8,2.25,1.71,1.71,0,*7C
1529006597.26,43165,17.44,73648.3,2.23,1.75,1.67,0,*78
1529006598.51,43166,17.44,73648.3,2.25,1.67,1.71,0,*79
1529006599.76,43167,17.44,73652.3,2.25,1.67,1.71,0,*78
1529006601.0,43168,17.44,73652.8,2.25,1.67,1.71,0,*77
1529006602.26,43169,17.44,73650.3,2.25,1.71,1.71,0,*71
1529006603.49,43170,17.44,73646.3,2.25,1.71,1.83,0,*74
1529006604.74,43171,17.5,73646.3,2.25,1.67,1.67,0,*78
1529006605.99,43172,17.44,73640.3,2.25,1.71,1.71,0,*7B
1529006607.22,43173,17.44,73646.8,2.27,1.71,1.67,0,*7F
1529006608.44,43174,17.44,73642.0,2.27,1.71,1.67,0,*78
1529006609.67,43175,17.44,73638.5,2.27,1.71,1.67,0,*79
1529006610.9,43176,17.5,73652.3,2.27,1.71,1.67,0,*7A
1529006612.13,43177,17.44,73652.5,2.27,1.67,1.67,0,*7C
1529006613.35,43178,17.44,73652.5,2.27,1.67,1.67,0,*73
1529006614.58,43179,17.44,73656.0,2.27,1.59,1.67,0,*7F
1529006615.8,43180,17.44,73658.5,2.29,1.71,1.75,0,*7E
1529006617.03,43181,17.44,73654.5,2.27,1.71,1.71,0,*75
1529006618.25,43182,17.44,73648.0,2.29,1.75,1.71,0,*7C
1529006619.48,43183,17.44,73648.5,2.27,1.71,1.71,0,*77
1529006620.7,43184,17.44,73650.8,2.27,1.67,1.67,0,*70
1529006621.93,43185,17.44,73644.5,2.27,1.71,1.67,0,*76
1529006623.16,43186,17.44,73648.0,2.27,1.71,1.71,0,*72
1529006624.38,43187,17.44,73662.5,2.27,1.67,1.71,0,*74
1529006625.6,43188,17.44,73650.0,2.27,1.67,1.71,0,*7B
1529006626.82,43189,17.44,73636.0,2.27,1.59,1.59,0,*7D
1529006628.05,43190,17.44,73636.0,2.27,1.59,1.59,0,*75
1529006629.27,43191,17.44,73640.5,2.27,1.59,1.67,0,*79
1529006630.5,43192,17.44,73646.5,2.27,1.67,1.67,0,*77
1529006631.72,43193,17.44,73628.3,2.27,1.67,1.67,0,*76
1529006632.97,43194,17.44,73620.5,2.25,1.59,1.55,0,*7F
1529006634.2,43195,17.44,73642.8,2.27,1.55,1.59,0,*7C
1529006635.43,43196,17.44,73636.3,2.27,1.59,1.55,0,*7F
1529006636.67,43197,17.44,73632.5,2.29,1.59,1.59,0,*7C
1529006637.9,43198,17.5,73640.8,2.27,1.55,1.55,0,*7D
1529006639.13,43199,17.44,73630.3,2.27,1.59,1.55,0,*70
1529006640.35,43200,17.44,73644.8,2.27,1.59,1.59,0,*7F
1529006641.58,43201,17.44,73648.3,2.27,1.55,1.55,0,*7E
1529006642.8,43202,17.44,73648.5,2.27,1.59,1.59,0,*7D
1529006644.03,43203,17.44,73642.5,2.27,1.59,1.55,0,*70
1529006645.25,43204,17.44,73650.5,2.27,1.67,1.71,0,*7C
1529006646.47,43205,17.44,73662.3,2.27,1.67,1.71,0,*7D
1529006647.7,43206,17.44,73658.8,2.27,1.67,1.67,0,*79
1529006648.93,43207,17.5,73650.8,2.27,1.67,1.67,0,*78
1529006650.15,43208,17.44,73654.3,2.27,1.67,1.67,0,*77
1529006651.38,43209,17.44,73650.8,2.27,1.55,1.67,0,*77
1529006652.61,43210,17.44,73648.0,2.27,1.67,1.67,0,*7E
1529006653.83,43211,17.44,73652.3,2.27,1.67,1.67,0,*7F
1529006655.06,43212,17.44,73658.5,2.27,1.71,1.71,0,*7C
1529006656.29,43213,17.44,73656.0,2.27,1.55,1.59,0,*71
1529006657.51,43214,17.44,73658.5,2.27,1.59,1.55,0,*76
1529006658.74,43215,17.44,73660.8,2.27,1.55,1.59,0,*77
1529006659.96,43216,17.44,73656.0,2.27,1.59,1.59,0,*78
1529006661.2,43217,17.44,73658.5,2.27,1.55,1.55,0,*79
1529006662.43,43218,17.44,73646.0,2.27,1.55,1.55,0,*76
1529006663.66,43219,17.44,73640.5,2.27,1.55,1.51,0,*73
1529006664.88,43220,17.44,73642.8,2.27,1.59,1.59,0,*7D
1529006666.11,43221,17.5,73642.8,2.27,1.67,1.71,0,*7B
1529006667.33,43222,17.44,73638.3,2.27,1.67,1.67,0,*7F
1529006668.56,43223,17.44,73642.8,2.27,1.71,1.67,0,*79
1529006669.79,43224,17.44,73644.3,2.27,1.67,1.67,0,*79
1529006671.01,43225,17.5,73656.3,2.27,1.67,1.67,0,*78
1529006672.24,43226,17.44,73656.3,2.27,1.67,1.67,0,*7B
1529006673.46,43227,17.44,73656.8,2.27,1.59,1.67,0,*77
1529006674.68,43228,17.44,73652.8,2.27,1.59,1.59,0,*75
1529006675.9,43229,17.44,73652.8,2.27,1.59,1.59,0,*74
1529006677.13,43230,17.44,73650.8,2.27,1.71,1.59,0,*76
1529006678.35,43231,17.44,73660.0,2.27,1.67,1.67,0,*7D
1529006679.59,43232,17.44,73662.8,2.25,1.71,1.79,0,*74
1529006680.81,43233,17.5,73658.8,2.27,1.71,1.67,0,*78
1529006682.04,43234,17.44,73650.8,2.27,1.71,1.71,0,*78
1529006683.27,43235,17.44,73650.0,2.27,1.67,1.67,0,*79
1529006684.49,43236,17.44,73652.0,2.27,1.67,1.67,0,*7A
1529006685.72,43237,17.44,73656.0,2.27,1.71,1.71,0,*7B
1529006686.93,43238,17.44,73654.3,2.27,1.71,1.79,0,*7C
1529006688.15,43239,17.5,73662.5,2.27,1.71,1.71,0,*75
1529006689.38,43240,17.44,73654.0,2.27,1.67,1.67,0,*7B
1529006690.6,43241,17.44,73650.5,2.27,1.67,1.67,0,*7A
1529006691.83,43242,17.44,73644.3,2.27,1.67,1.67,0,*79
1529006693.05,43243,17.44,73650.5,2.27,1.59,1.59,0,*78
1529006694.27,43244,17.44,73644.8,2.27,1.67,1.67,0,*7F
1529006695.5,43245,17.44,73652.3,2.27,1.67,1.67,0,*7E
1529006696.72,43246,17.44,73656.3,2.27,1.59,1.59,0,*7D
1529006697.95,43247,17.44,73660.3,2.27,1.55,1.59,0,*70
1529006699.17,43248,17.44,73658.8,2.27,1.59,1.59,0,*73
1529006700.4,43249,17.44,73658.3,2.27,1.59,1.67,0,*7F
1529006701.63,43250,17.44,73652.5,2.27,1.55,1.67,0,*7B
1529006702.88,43251,17.44,73654.5,2.29,1.71,1.63,0,*76
1529006704.1,43252,17.44,73650.5,2.27,1.67,1.67,0,*78
1529006705.33,43253,17.44,73652.0,2.27,1.67,1.67,0,*79
1529006706.57,43254,17.44,73650.0,2.29,1.71,1.71,0,*70
1529006707.8,43255,17.44,73642.3,2.27,1.67,1.59,0,*72
1529006709.03,43256,17.44,73650.8,2.27,1.71,1.67,0,*7B
1529006710.25,43257,17.44,73648.5,2.27,1.67,1.67,0,*7D
1529006711.49,43258,17.44,73642.0,2.29,1.59,1.59,0,*7C
1529006712.72,43259,17.44,73650.5,2.27,1.51,1.51,0,*73
1529006713.94,43260,17.5,73662.5,2.27,1.51,1.55,0,*7D
1529006715.17,43261,17.44,73660.5,2.27,1.59,1.71,0,*72
1529006716.41,43262,17.44,73656.0,2.29,1.63,1.59,0,*7C
1529006717.63,43263,17.44,73658.0,2.27,1.59,1.59,0,*7A
1529006718.86,43264,17.44,73660.0,2.27,1.59,1.67,0,*70
1529006720.11,43265,17.44,73656.0,2.25,1.67,1.67,0,*7E
1529006721.33,43266,17.44,73654.3,2.29,1.75,1.71,0,*75
1529006722.56,43267,17.5,73658.5,2.27,1.67,1.67,0,*7E
1529006723.78,43268,17.44,73662.0,2.27,1.67,1.67,0,*71
1529006725.01,43269,17.44,73662.8,2.27,1.71,1.67,0,*77
1529006726.23,43270,17.44,73660.3,2.27,1.67,1.59,0,*75
1529006727.46,43271,17.44,73660.3,2.27,1.59,1.55,0,*75
1529006728.71,43272,17.44,73668.8,2.29,1.63,1.63,0,*74
1529006729.93,43273,17.44,73668.8,2.27,1.59,1.67,0,*76
1529006731.15,43274,17.5,73668.0,2.27,1.59,1.59,0,*7C
1529006732.37,43275,17.44,73660.3,2.27,1.59,1.59,0,*7D
1529006733.6,43276,17.44,73656.0,2.27,1.59,1.59,0,*7E
1529006734.82,43277,17.44,73662.8,2.27,1.67,1.59,0,*72
1529006736.04,43278,17.44,73656.8,2.27,1.71,1.71,0,*70
1529006737.27,43279,17.44,73654.0,2.27,1.55,1.59,0,*7D
1529006738.49,43280,17.44,73658.8,2.27,1.59,1.59,0,*77
1529006739.73,43281,17.44,73656.3,2.27,1.55,1.55,0,*76
1529006740.96,43282,17.44,73650.8,2.27,1.55,1.59,0,*79
1529006742.19,43283,17.44,73644.0,2.27,1.55,1.55,0,*74
1529006743.42,43284,17.44,73652.0,2.27,1.55,1.55,0,*73
1529006744.65,43285,17.44,73658.0,2.27,1.55,1.59,0,*7E
1529006745.87,43286,17.44,73656.5,2.27,1.43,1.43,0,*71
1529006747.11,43287,17.44,73650.5,2.27,1.29,1.33,0,*7B
1529006748.35,43288,17.44,73644.8,2.27,1.29,1.43,0,*73
1529006749.57,43289,17.44,73646.3,2.27,1.51,1.51,0,*7E
1529006750.83,43290,17.44,73646.5,2.25,1.55,1.55,0,*74
1529006752.09,43291,17.44,73642.5,2.25,1.55,1.55,0,*75
1529006753.31,43292,17.44,73646.8,2.23,1.51,1.55,0,*74
1529006754.56,43293,17.44,73642.3,2.25,1.67,1.55,0,*76
1529006755.81,43294,17.44,73650.8,2.25,1.59,1.59,0,*70
1529006757.06,43295,17.44,73644.8,2.25,1.55,1.55,0,*71
1529006758.32,43296,17.44,73646.8,2.25,1.55,1.55,0,*72
1529006759.54,43297,17.44,73644.8,2.23,1.51,1.51,0,*75
1529006760.8,43298,17.44,73636.8,2.25,1.55,1.55,0,*7C
1529006762.06,43299,17.44,73640.0,2.25,1.55,1.55,0,*7D
1529006763.31,43300,17.44,73650.8,2.25,1.59,1.55,0,*70
1529006764.5,43301,17.44,73646.5,2.23,1.41,1.47,0,*7D
1529006765.75,43302,17.44,73650.3,2.25,1.51,1.43,0,*7D
1529006767.0,43303,17.44,73658.5,2.25,1.51,1.51,0,*7F
1529006768.26,43304,17.44,73660.5,2.25,1.55,1.55,0,*78
1529006769.49,43305,17.44,73662.3,2.23,1.29,1.25,0,*73
1529006770.72,43306,17.44,73662.0,2.23,1.17,1.17,0,*7C
1529006771.96,43307,17.44,73640.5,2.23,1.13,1.13,0,*7D
1529006773.19,43308,17.44,73632.0,2.23,1.17,1.17,0,*72
1529006774.37,43309,17.44,73618.8,2.23,1.05,1.05,0,*73
1529006775.58,43310,17.44,73618.0,2.23,0.95,0.95,0,*7B
1529006776.79,43311,17.44,73614.3,2.23,1.13,1.05,0,*7D
1529006778.02,43312,17.44,73612.0,2.19,1.25,1.21,0,*74
1529006779.28,43313,17.44,73620.3,2.21,1.17,1.25,0,*7B
1529006780.52,43314,17.44,73622.8,2.19,1.21,1.21,0,*76
1529006781.76,43315,17.44,73624.5,2.19,1.21,1.13,0,*76
1529006782.99,43316,17.44,73626.3,2.19,1.33,1.33,0,*74
1529006784.21,43317,17.44,73634.8,2.19,1.43,1.43,0,*75
1529006785.46,43318,17.44,73628.5,2.21,1.47,1.47,0,*71
1529006786.7,43319,17.44,73634.8,2.19,1.33,1.37,0,*7F
1529006787.93,43320,17.44,73648.3,2.19,1.37,1.43,0,*72
1529006789.15,43321,17.44,73648.8,2.19,1.43,1.43,0,*70
1529006790.37,43322,17.44,73658.0,2.19,1.47,1.51,0,*74
1529006791.6,43323,17.44,73656.0,2.19,1.51,1.51,0,*72
1529006792.86,43324,17.44,73656.5,2.21,1.55,1.55,0,*7E
1529006794.09,43325,17.44,73656.5,2.19,1.55,1.51,0,*70
1529006795.34,43326,17.44,73654.0,2.21,1.67,1.63,0,*78
1529006796.56,43327,17.44,73646.5,2.19,1.63,1.59,0,*7F
1529006797.78,43328,17.44,73642.8,2.19,1.59,1.59,0,*79
1529006799.0,43329,17.44,73636.3,2.19,1.59,1.59,0,*78
1529006800.25,43330,17.44,73638.8,2.21,1.51,1.51,0,*7B
1529006801.51,43331,17.44,73648.8,2.21,1.55,1.63,0,*7F
1529006802.77,43332,17.44,73656.5,2.21,1.55,1.51,0,*7D
1529006804.02,43333,17.44,73642.5,2.21,1.63,1.63,0,*78
1529006805.25,43334,17.44,73640.8,2.23,1.63,1.55,0,*78
1529006806.47,43335,17.44,73638.3,2.23,1.51,1.51,0,*7C
1529006807.69,43336,17.44,73642.3,2.19,1.51,1.51,0,*76
1529006808.95,43337,17.44,73654.3,2.21,1.55,1.55,0,*7C
1529006810.18,43338,17.44,73644.8,2.19,1.59,1.51,0,*70
1529006811.4,43339,17.44,73648.5,2.19,1.59,1.51,0,*71
1529006812.65,43340,17.44,73648.0,2.21,1.51,1.51,0,*7C
1529006813.9,43341,17.44,73652.3,2.21,1.51,1.47,0,*7A
1529006815.15,43342,17.44,73650.3,2.21,1.47,1.55,0,*7D
1529006816.37,43343,17.44,73648.8,2.21,1.47,1.41,0,*79
1529006817.6,43344,17.44,73652.8,2.23,1.47,1.47,0,*7A
1529006818.83,43345,17.44,73656.3,2.23,1.55,1.55,0,*7B
1529006820.05,43346,17.44,73652.5,2.23,1.63,1.63,0,*78
1529006821.31,43347,17.44,73652.3,2.21,1.63,1.55,0,*7E
1529006822.56,43348,17.44,73650.5,2.21,1.63,1.63,0,*74
1529006823.81,43349,17.44,73652.8,2.21,1.63,1.63,0,*75
1529006825.07,43350,17.44,73648.5,2.21,1.63,1.63,0,*7D
1529006826.29,43351,17.5,73658.0,2.23,1.67,1.67,0,*7E
1529006827.54,43352,17.44,73658.8,2.21,1.67,1.63,0,*7B
1529006828.8,43353,17.44,73654.3,2.21,1.67,1.63,0,*7A
1529006830.05,43354,17.44,73648.8,2.21,1.67,1.67,0,*79
1529006831.27,43355,17.44,73644.5,2.23,1.63,1.63,0,*7A
1529006832.5,43356,17.44,73648.5,2.23,1.63,1.63,0,*79
1529006833.72,43357,17.44,73650.3,2.23,1.67,1.55,0,*79
1529006834.94,43358,17.44,73654.5,2.19,1.59,1.51,0,*76
1529006836.17,43359,17.44,73652.0,2.23,1.55,1.55,0,*76
1529006837.4,43360,17.44,73664.0,2.23,1.51,1.55,0,*78
1529006838.65,43361,17.44,73664.5,2.25,1.67,1.67,0,*7B
1529006839.87,43362,17.44,73656.8,2.23,1.51,1.63,0,*7F
1529006841.1,43363,17.44,73650.5,2.23,1.55,1.55,0,*7F
1529006842.33,43364,17.44,73654.5,2.23,1.55,1.63,0,*7D
1529006843.55,43365,17.44,73650.3,2.23,1.63,1.67,0,*7D
1529006844.78,43366,17.44,73644.0,2.23,1.63,1.67,0,*7E
1529006846.0,43367,17.44,73644.5,2.23,1.67,1.67,0,*7B
1529006847.23,43368,17.44,73650.0,2.23,1.63,1.55,0,*71
1529006848.48,43369,17.44,73650.5,2.25,1.71,1.67,0,*74
1529006849.7,43370,17.44,73646.8,2.23,1.67,1.67,0,*7D
1529006850.92,43371,17.44,73648.3,2.23,1.67,1.67,0,*7C
1529006852.14,43372,17.44,73654.8,2.23,1.67,1.63,0,*7B
1529006853.37,43373,17.44,73654.8,2.23,1.63,1.63,0,*7E
1529006854.59,43374,17.44,73654.3,2.23,1.63,1.63,0,*79
1529006855.82,43375,17.44,73652.0,2.23,1.67,1.63,0,*7C
1529006857.04,43376,17.44,73650.8,2.23,1.63,1.63,0,*7B
1529006858.27,43377,17.44,73654.8,2.23,1.55,1.63,0,*7F
1529006859.49,43378,17.44,73656.8,2.23,1.59,1.63,0,*7C
1529006860.72,43379,17.44,73654.8,2.23,1.51,1.51,0,*74
1529006861.94,43380,17.44,73648.8,2.23,1.51,1.51,0,*72
1529006863.17,43381,17.44,73640.8,2.23,1.55,1.55,0,*73
1529006864.39,43382,17.44,73644.8,2.23,1.67,1.63,0,*74
1529006865.62,43383,17.44,73650.5,2.23,1.63,1.63,0,*71
1529006866.84,43384,17.44,73652.8,2.23,1.67,1.67,0,*76
1529006868.09,43385,17.44,73644.0,2.25,1.55,1.67,0,*70
1529006869.34,43386,17.44,73648.5,2.25,1.67,1.67,0,*72
1529006870.57,43387,17.44,73642.5,2.23,1.63,1.67,0,*71
1529006871.8,43388,17.44,73640.8,2.23,1.55,1.51,0,*7E
1529006873.03,43389,17.44,73644.3,2.23,1.55,1.55,0,*7B
1529006874.26,43390,17.44,73638.3,2.23,1.55,1.55,0,*73
1529006875.48,43391,17.44,73640.5,2.23,1.63,1.55,0,*77
1529006876.71,43392,17.44,73640.0,2.23,1.67,1.55,0,*70
1529006877.93,43393,17.44,73654.5,2.23,1.67,1.63,0,*74
1529006879.18,43394,17.44,73650.0,2.25,1.59,1.67,0,*7C
1529006880.4,43395,17.44,73648.3,2.23,1.67,1.63,0,*72
1529006881.63,43396,17.44,73644.0,2.23,1.63,1.63,0,*75
1529006882.88,43397,17.44,73640.0,2.25,1.67,1.67,0,*72
1529006884.1,43398,17.44,73636.5,2.23,1.51,1.55,0,*7F
1529006885.32,43399,17.44,73640.3,2.23,1.51,1.51,0,*7A
1529006886.54,43400,17.44,73652.3,2.23,1.51,1.51,0,*7D
1529006887.77,43401,17.44,73654.5,2.23,1.51,1.51,0,*7C
1529006888.99,43402,17.44,73646.8,2.23,1.51,1.55,0,*7B
1529006890.25,43403,17.44,73650.8,2.21,1.51,1.51,0,*7C
1529006891.5,43404,17.44,73648.0,2.21,1.55,1.55,0,*7B
1529006892.73,43405,17.44,73654.0,2.23,1.51,1.51,0,*78
1529006893.96,43406,17.44,73658.8,2.23,1.55,1.55,0,*7B
1529006895.18,43407,17.44,73652.5,2.23,1.67,1.63,0,*7E
1529006896.41,43408,17.44,73650.3,2.23,1.55,1.63,0,*70
1529006897.63,43409,17.44,73650.3,2.23,1.51,1.51,0,*74
1529006898.86,43410,17.44,73648.8,2.23,1.63,1.55,0,*79
1529006900.09,43411,17.44,73652.5,2.23,1.55,1.63,0,*78
1529006901.31,43412,17.44,73650.8,2.23,1.55,1.63,0,*7B
1529006902.54,43413,17.44,73648.8,2.23,1.63,1.63,0,*7F
1529006903.77,43414,17.44,73646.5,2.23,1.63,1.67,0,*7C
1529006904.99,43415,17.44,73640.3,2.23,1.67,1.63,0,*7D
1529006906.24,43416,17.44,73648.3,2.25,1.67,1.67,0,*7C
1529006907.46,43417,17.44,73648.0,2.23,1.63,1.63,0,*7B
1529006908.68,43418,17.44,73654.0,2.23,1.67,1.67,0,*74
1529006909.91,43419,17.44,73644.3,2.23,1.63,1.63,0,*75
1529006911.14,43420,17.44,73644.3,2.23,1.55,1.55,0,*7F
1529006912.36,43421,17.44,73650.5,2.23,1.51,1.55,0,*7A
1529006913.59,43422,17.44,73646.3,2.23,1.51,1.51,0,*7D
1529006914.84,43423,17.44,73648.0,2.25,1.55,1.59,0,*76
1529006916.1,43424,17.44,73650.0,2.25,1.55,1.55,0,*7D
1529006917.32,43425,17.44,73642.8,2.23,1.51,1.55,0,*7E
1529006918.55,43426,17.44,73646.5,2.23,1.63,1.55,0,*7C
1529006919.78,43427,17.44,73644.8,2.23,1.55,1.55,0,*78
1529006921.01,43428,17.44,73640.5,2.23,1.55,1.63,0,*72
1529006922.23,43429,17.44,73646.3,2.23,1.55,1.63,0,*73
1529006923.49,43430,17.44,73644.8,2.21,1.67,1.63,0,*78
1529006924.71,43431,17.44,73646.8,2.23,1.63,1.55,0,*7A
1529006925.93,43432,17.44,73640.8,2.23,1.67,1.63,0,*78
1529006927.16,43433,17.44,73646.8,2.23,1.63,1.67,0,*79
1529006928.36,43434,17.44,73644.3,2.23,1.67,1.75,0,*79
1529006929.58,43435,17.44,73646.0,2.23,1.67,1.67,0,*7B
1529006930.81,43436,17.44,73652.3,2.23,1.63,1.63,0,*78
1529006932.03,43437,17.44,73652.5,2.23,1.63,1.67,0,*7D
1529006933.25,43438,17.44,73648.5,2.23,1.67,1.63,0,*72
1529006934.48,43439,17.44,73646.5,2.23,1.63,1.55,0,*72
1529006935.71,43440,17.44,73648.8,2.23,1.63,1.63,0,*79
1529006936.94,43441,17.44,73650.3,2.23,1.55,1.63,0,*7D
1529006938.16,43442,17.44,73646.5,2.23,1.63,1.63,0,*7B
1529006939.39,43443,17.44,73644.0,2.23,1.63,1.67,0,*7E